�N����,����,�~����,�C��,���x,�C��,����,���ϕ���,�ő�u�ԕ���,�ő厞����,���˗�,�I�_���x,�n�����x,�ő啗���N��,DTYPE
"18/04/23","00:10",0.0,14.5,79.8,1012.6,315.7,1.2,1.7,327.2,0.00,11.1,16.1,"00:00:24",1
"18/04/23","00:20",0.0,14.5,79.5,1012.8,284.5,0.8,1.2,307.0,0.00,11.0,16.1,"00:16:24",1
"18/04/23","00:30",0.0,14.4,79.6,1012.8,308.3,1.0,1.3,322.1,0.00,11.0,15.8,"00:24:32",1
"18/04/23","00:40",0.0,14.4,81.0,1013.0,319.9,1.2,2.4,335.1,0.00,11.2,15.9,"00:37:44",1
"18/04/23","00:50",0.0,14.3,79.7,1012.8,307.5,1.1,2.2,330.6,0.00,10.9,15.8,"00:40:16",1
"18/04/23","01:00",0.0,14.2,80.5,1012.8,310.1,1.2,2.0,323.9,0.00,10.9,15.8,"00:58:16",1
"18/04/23","01:10",0.0,14.4,80.4,1013.0,327.8,1.5,2.5,335.3,0.00,11.1,15.5,"01:01:52",1
"18/04/23","01:20",0.0,14.4,80.2,1013.0,313.4,1.1,2.0,316.5,0.00,11.1,15.6,"01:10:40",1
"18/04/23","01:30",0.0,14.1,80.0,1012.8,321.9,1.1,1.7,319.4,0.00,10.7,15.6,"01:29:20",1
"18/04/23","01:40",0.0,13.9,82.0,1013.0,328.1,1.2,2.1,332.4,0.00,10.9,15.4,"01:39:52",1
"18/04/23","01:50",0.0,14.0,81.3,1012.6,312.1,1.5,2.4,320.9,0.00,10.9,15.5,"01:46:40",1
"18/04/23","02:00",0.0,13.9,81.1,1012.3,300.5,1.3,2.5,308.7,0.00,10.8,15.2,"01:53:12",1
"18/04/23","02:10",0.0,13.8,80.9,1012.8,314.7,1.2,1.9,326.4,0.00,10.6,15.3,"02:06:48",1
"18/04/23","02:20",0.0,13.3,81.6,1012.8,284.4,0.6,1.9,320.5,0.00,10.3,15.4,"02:10:08",1
"18/04/23","02:30",0.0,13.3,83.3,1013.0,331.2,0.8,1.4,302.8,0.00,10.6,15.3,"02:24:16",1
"18/04/23","02:40",0.0,13.2,83.4,1012.8,295.8,1.0,2.1,314.5,0.00,10.5,15.1,"02:37:22",1
"18/04/23","02:50",0.0,13.1,84.0,1012.6,301.0,1.2,2.5,319.1,0.00,10.5,15.1,"02:48:36",1
"18/04/23","03:00",0.0,13.3,83.7,1012.8,332.7,1.6,2.2,331.8,0.00,10.6,15.1,"02:53:12",1
"18/04/23","03:10",0.0,13.1,83.9,1012.6,319.0,1.3,1.9,319.9,0.00,10.5,15.1,"03:01:36",1
"18/04/23","03:20",0.0,12.7,84.0,1012.8,290.2,1.0,1.6,314.8,0.00,10.1,15.0,"03:12:14",1
"18/04/23","03:30",0.0,12.4,85.4,1013.0,304.2,1.1,1.7,321.5,0.00,10.1,14.8,"03:27:06",1
"18/04/23","03:40",0.0,12.0,85.6,1013.0,315.2,0.3,1.2,324.3,0.00,9.7,14.8,"03:30:42",1
"18/04/23","03:50",0.0,11.7,87.8,1012.6,312.7,1.3,1.7,325.2,0.00,9.8,14.7,"03:44:56",1
"18/04/23","04:00",0.0,11.7,88.9,1012.6,303.7,1.2,1.7,308.5,0.00,10.0,14.7,"03:57:46",1
"18/04/23","04:10",0.0,11.9,89.1,1012.8,313.6,1.5,2.2,300.4,0.00,10.2,14.7,"04:04:28",1
"18/04/23","04:20",0.0,12.4,89.1,1012.8,312.4,2.1,3.6,300.5,0.00,10.7,14.5,"04:19:52",1
"18/04/23","04:30",0.0,12.5,86.6,1013.3,293.9,1.5,3.1,333.7,0.00,10.4,14.5,"04:20:18",1
"18/04/23","04:40",0.0,12.2,87.9,1013.0,308.0,1.0,2.0,311.7,0.00,10.3,14.5,"04:38:32",1
"18/04/23","04:50",0.0,12.0,87.3,1012.8,309.8,1.2,2.8,311.5,0.00,10.0,14.5,"04:45:26",1
"18/04/23","05:00",0.0,11.7,88.2,1012.8,290.6,0.5,2.2,324.1,0.00,9.9,14.3,"04:58:26",1
"18/04/23","05:10",0.0,11.5,89.1,1013.0,318.1,1.7,2.0,323.9,0.00,9.8,14.3,"05:02:40",1
"18/04/23","05:20",0.0,11.4,90.3,1012.8,323.6,1.5,1.9,319.4,0.00,9.9,14.3,"05:12:10",1
"18/04/23","05:30",0.0,11.5,90.0,1013.0,290.2,1.2,1.9,329.4,0.00,10.0,14.2,"05:20:28",1
"18/04/23","05:40",0.0,11.4,90.8,1013.3,290.2,1.2,1.4,313.4,0.00,10.0,14.2,"05:33:52",1
"18/04/23","05:50",0.0,11.6,90.3,1013.0,322.7,1.3,2.1,323.7,0.00,10.1,14.2,"05:48:14",1
"18/04/23","06:00",0.0,11.6,91.1,1013.3,298.8,1.6,2.4,318.9,0.00,10.2,14.1,"05:51:04",1
"18/04/23","06:10",0.0,11.8,91.3,1013.5,306.9,1.0,1.4,316.7,0.00,10.5,14.1,"06:05:12",1
"18/04/23","06:20",0.0,12.4,90.6,1013.8,291.1,0.6,1.2,314.6,0.01,10.9,14.2,"06:12:16",1
"18/04/23","06:30",0.0,13.0,89.6,1013.8,327.3,1.0,1.6,329.7,0.02,11.4,14.1,"06:22:00",1
"18/04/23","06:40",0.0,13.6,87.9,1014.0,325.2,1.3,1.6,324.7,0.04,11.7,14.1,"06:33:52",1
"18/04/23","06:50",0.0,14.1,85.8,1014.2,330.9,1.0,1.7,340.1,0.05,11.8,14.1,"06:42:00",1
"18/04/23","07:00",0.0,14.7,83.8,1014.0,303.9,0.8,1.6,324.7,0.08,12.0,14.3,"06:52:24",1
"18/04/23","07:10",0.0,15.3,80.4,1014.0,287.1,0.3,1.1,323.5,0.09,12.0,14.1,"07:05:20",1
"18/04/23","07:20",0.0,16.2,76.6,1014.2,302.4,0.6,1.1,334.2,0.10,12.1,14.3,"07:16:48",1
"18/04/23","07:30",0.0,16.2,75.6,1014.7,272.4,0.3,1.1,118.7,0.13,11.9,14.3,"07:28:08",1
"18/04/23","07:40",0.0,16.8,73.6,1014.5,127.4,0.2,0.6,115.6,0.17,12.1,14.4,"07:31:12",1
"18/04/23","07:50",0.0,17.1,73.0,1014.2,163.0,0.5,1.2,160.4,0.19,12.3,14.6,"07:45:44",1
"18/04/23","08:00",0.0,17.4,73.0,1014.0,347.3,0.5,1.2,82.9,0.19,12.6,14.7,"07:52:56",1
"18/04/23","08:10",0.0,17.9,69.8,1013.8,33.2,0.6,1.4,342.8,0.23,12.4,14.8,"08:08:08",1
"18/04/23","08:20",0.0,18.6,67.0,1013.5,173.6,0.6,1.6,101.3,0.26,12.4,15.1,"08:10:02",1
"18/04/23","08:30",0.0,19.0,65.9,1013.3,128.5,0.8,2.4,114.0,0.30,12.5,15.4,"08:28:56",1
"18/04/23","08:40",0.0,19.4,68.0,1013.0,184.0,0.8,2.6,117.2,0.32,13.4,15.4,"08:36:56",1
"18/04/23","08:50",0.0,19.9,66.0,1012.6,134.0,0.8,3.3,144.7,0.35,13.4,15.7,"08:48:56",1
"18/04/23","09:00",0.0,20.5,66.0,1012.6,163.5,1.0,2.1,194.9,0.36,14.0,16.0,"08:57:12",1
"18/04/23","09:10",0.0,20.4,65.1,1012.3,163.4,1.1,2.6,161.1,0.40,13.7,16.2,"09:08:32",1
"18/04/23","09:20",0.0,20.8,62.1,1012.6,166.3,1.5,3.3,109.6,0.42,13.3,16.4,"09:18:02",1
"18/04/23","09:30",0.0,20.9,65.1,1012.1,189.1,1.0,2.5,179.2,0.37,14.1,16.8,"09:24:26",1
"18/04/23","09:40",0.0,21.2,64.5,1012.3,149.7,1.1,3.1,130.8,0.40,14.3,16.9,"09:37:22",1
"18/04/23","09:50",0.0,21.8,62.9,1011.9,153.6,1.5,3.3,161.5,0.46,14.5,17.2,"09:47:40",1
"18/04/23","10:00",0.0,21.6,60.4,1011.9,113.7,1.5,3.9,179.4,0.47,13.7,17.4,"09:56:28",1
"18/04/23","10:10",0.0,22.1,60.2,1011.6,121.4,1.7,3.4,112.8,0.47,14.1,17.7,"10:06:24",1
"18/04/23","10:20",0.0,22.1,60.2,1011.6,147.4,1.6,3.7,123.4,0.49,14.1,18.0,"10:16:24",1
"18/04/23","10:30",0.0,22.7,57.9,1010.9,113.9,1.3,4.0,145.5,0.48,14.0,18.2,"10:23:04",1
"18/04/23","10:40",0.0,22.9,59.9,1010.9,128.3,1.6,3.4,107.1,0.50,14.7,18.5,"10:31:44",1
"18/04/23","10:50",0.0,23.2,57.4,1010.4,104.3,1.2,3.3,119.2,0.48,14.4,18.9,"10:42:24",1
"18/04/23","11:00",0.0,23.5,56.4,1010.2,59.9,1.6,3.3,125.0,0.48,14.4,18.9,"10:57:52",1
"18/04/23","11:10",0.0,23.8,56.3,1009.7,46.3,1.1,3.4,344.7,0.51,14.6,19.3,"11:07:04",1
"18/04/23","11:20",0.0,23.7,53.9,1010.2,164.8,1.6,3.5,189.2,0.54,13.9,19.7,"11:15:36",1
"18/04/23","11:30",0.0,24.3,54.1,1009.7,134.8,2.5,5.0,119.1,0.57,14.5,19.7,"11:27:44",1
"18/04/23","11:40",0.0,24.5,52.4,1009.5,135.5,2.3,4.3,143.6,0.56,14.2,20.1,"11:31:28",1
"18/04/23","11:50",0.0,24.4,48.6,1009.7,150.9,2.3,4.7,188.4,0.60,12.9,20.2,"11:42:56",1
"18/04/23","12:00",0.0,24.8,50.3,1009.7,162.0,1.3,2.9,142.8,0.61,13.8,20.7,"11:59:52",1
"18/04/23","12:10",0.0,24.7,51.2,1009.7,154.3,2.2,4.7,135.8,0.50,14.0,20.6,"12:05:44",1
"18/04/23","12:20",0.0,24.1,49.2,1009.5,169.6,1.7,3.5,226.5,0.43,12.8,20.8,"12:14:48",1
"18/04/23","12:30",0.0,24.7,51.3,1009.5,184.7,2.8,5.4,177.3,0.52,14.0,21.1,"12:26:40",1
"18/04/23","12:40",0.0,25.2,48.3,1009.5,187.2,1.5,3.5,227.2,0.60,13.6,21.2,"12:32:24",1
"18/04/23","12:50",0.0,25.2,51.3,1009.5,175.2,2.7,4.7,107.5,0.53,14.5,21.4,"12:40:24",1
"18/04/23","13:00",0.0,25.4,50.1,1008.8,160.2,2.8,4.9,163.1,0.49,14.3,21.5,"12:53:52",1
"18/04/23","13:10",0.0,25.6,49.1,1009.3,186.4,2.8,4.7,153.8,0.51,14.2,21.8,"13:01:28",1
"18/04/23","13:20",0.0,25.4,50.0,1008.8,185.7,2.6,4.7,187.0,0.47,14.3,21.9,"13:13:36",1
"18/04/23","13:30",0.0,24.9,53.3,1009.0,166.5,1.8,4.8,198.3,0.38,14.8,22.0,"13:21:04",1
"18/04/23","13:40",0.0,26.1,51.5,1008.8,229.3,1.6,3.7,208.6,0.48,15.4,21.9,"13:33:04",1
"18/04/23","13:50",0.0,25.8,51.1,1009.0,168.7,1.6,3.7,185.1,0.44,15.0,22.1,"13:43:36",1
"18/04/23","14:00",0.0,25.1,49.5,1009.0,183.7,2.1,4.1,179.0,0.31,13.8,22.1,"13:54:48",1
"18/04/23","14:10",0.0,24.9,51.0,1008.8,197.0,1.8,6.0,228.5,0.27,14.1,21.9,"14:06:16",1
"18/04/23","14:20",0.0,25.3,50.5,1008.3,231.4,2.1,4.9,247.5,0.34,14.3,21.9,"14:17:36",1
"18/04/23","14:30",0.0,25.8,46.4,1008.1,215.8,1.2,3.4,231.7,0.50,13.5,21.9,"14:20:02",1
"18/04/23","14:40",0.0,26.3,48.3,1009.0,238.3,1.5,4.1,211.1,0.49,14.6,22.1,"14:37:04",1
"18/04/23","14:50",0.0,25.4,47.5,1008.8,240.0,2.0,4.3,217.2,0.41,13.5,22.0,"14:46:00",1
"18/04/23","15:00",0.0,24.9,49.9,1008.3,254.3,2.0,3.9,234.4,0.32,13.8,21.9,"14:54:00",1
"18/04/23","15:10",0.0,24.9,49.0,1008.1,258.2,1.8,3.7,294.2,0.39,13.5,22.0,"15:03:52",1
"18/04/23","15:20",0.0,25.4,48.7,1007.8,273.2,1.3,4.8,229.9,0.35,13.9,21.9,"15:11:20",1
"18/04/23","15:30",0.0,24.8,49.4,1007.6,314.6,2.3,5.8,351.0,0.33,13.5,22.1,"15:23:52",1
"18/04/23","15:40",0.0,24.9,50.1,1008.3,286.3,2.1,4.8,281.6,0.25,13.8,22.0,"15:37:04",1
"18/04/23","15:50",0.0,24.7,49.8,1008.3,282.9,2.1,4.3,247.7,0.24,13.6,21.8,"15:46:24",1
"18/04/23","16:00",0.0,24.5,49.4,1008.6,254.7,2.1,6.5,232.9,0.23,13.3,21.8,"15:57:04",1
"18/04/23","16:10",0.0,24.6,48.6,1008.3,251.8,2.3,6.3,229.8,0.26,13.1,21.8,"16:03:20",1
"18/04/23","16:20",0.0,24.7,48.5,1008.3,275.6,1.8,5.5,338.6,0.16,13.2,21.7,"16:14:08",1
"18/04/23","16:30",0.0,24.1,48.9,1008.3,257.2,1.7,4.1,235.3,0.09,12.7,21.6,"16:24:48",1
"18/04/23","16:40",0.0,23.9,49.8,1008.8,272.4,1.6,3.4,300.6,0.09,12.8,21.4,"16:36:32",1
"18/04/23","16:50",0.0,23.8,50.2,1008.8,274.2,1.3,2.9,323.4,0.09,12.9,21.1,"16:49:20",1
"18/04/23","17:00",0.0,23.4,49.8,1008.8,275.7,1.5,3.3,323.9,0.06,12.4,21.1,"16:52:24",1
"18/04/23","17:10",0.0,23.0,49.5,1009.5,234.2,2.2,4.9,188.8,0.05,11.9,21.1,"17:02:48",1
"18/04/23","17:20",0.0,22.9,48.7,1009.3,246.3,1.8,4.4,239.3,0.04,11.6,21.0,"17:16:32",1
"18/04/23","17:30",0.0,22.7,48.5,1009.0,254.2,1.2,3.3,235.4,0.02,11.3,20.7,"17:24:48",1
"18/04/23","17:40",0.0,22.7,47.7,1009.3,273.4,1.5,4.5,330.1,0.02,11.1,20.7,"17:36:24",1
"18/04/23","17:50",0.0,22.3,48.3,1009.3,241.5,1.3,3.2,310.6,0.01,10.9,20.6,"17:49:44",1
"18/04/23","18:00",0.0,22.2,48.3,1009.5,261.0,1.1,2.4,232.1,0.01,10.8,20.3,"17:54:32",1
"18/04/23","18:10",0.0,22.0,49.1,1009.5,261.3,1.0,2.0,224.9,0.00,10.9,20.3,"18:03:04",1
"18/04/23","18:20",0.0,21.8,50.2,1009.7,264.4,1.3,2.4,234.9,0.00,11.0,20.0,"18:14:24",1
"18/04/23","18:30",0.0,21.5,51.6,1009.7,290.8,1.0,2.0,343.5,0.00,11.2,20.0,"18:29:12",1
"18/04/23","18:40",0.0,21.4,53.2,1010.2,290.0,1.2,2.7,284.9,0.00,11.5,20.0,"18:36:40",1
"18/04/23","18:50",0.0,21.2,55.1,1010.2,285.8,1.0,2.1,328.9,0.00,11.9,19.7,"18:43:52",1
"18/04/23","19:00",0.0,21.1,55.5,1010.0,240.5,1.3,3.2,233.6,0.00,11.9,19.5,"18:52:24",1
"18/04/23","19:10",0.0,21.0,56.6,1010.0,269.7,1.2,2.2,306.2,0.00,12.1,19.6,"19:04:40",1
"18/04/23","19:20",0.0,20.9,57.7,1010.2,278.5,1.6,3.5,311.9,0.00,12.3,19.5,"19:14:48",1
"18/04/23","19:30",0.0,20.8,58.1,1010.4,258.1,1.3,3.3,311.7,0.00,12.3,19.3,"19:27:36",1
"18/04/23","19:40",0.0,20.8,58.5,1010.7,297.8,1.1,2.9,340.9,0.00,12.4,19.2,"19:37:52",1
"18/04/23","19:50",0.0,20.7,59.4,1010.7,271.3,1.1,3.7,326.6,0.00,12.6,19.3,"19:42:48",1
"18/04/23","20:00",0.0,20.6,59.7,1010.9,258.2,0.6,1.2,272.5,0.00,12.5,19.2,"19:50:08",1
"18/04/23","20:10",0.0,20.4,61.3,1011.2,299.6,1.0,1.9,336.5,0.00,12.7,18.8,"20:00:32",1
"18/04/23","20:20",0.0,20.4,61.8,1010.9,319.9,1.3,2.5,335.6,0.00,12.9,18.9,"20:11:44",1
"18/04/23","20:30",0.0,20.2,61.9,1011.4,327.0,1.3,2.9,336.3,0.00,12.7,18.8,"20:28:48",1
"18/04/23","20:40",0.0,20.2,62.5,1011.6,329.7,0.8,2.0,330.8,0.00,12.9,18.7,"20:30:48",1
"18/04/23","20:50",0.0,20.0,64.0,1011.4,348.6,1.0,1.9,346.1,0.00,13.0,18.6,"20:40:56",1
"18/04/23","21:00",0.0,19.6,66.7,1011.2,336.3,1.2,2.0,340.5,0.00,13.3,18.7,"20:51:36",1
"18/04/23","21:10",0.0,19.6,66.5,1011.4,344.3,0.8,1.6,336.1,0.00,13.2,18.8,"21:08:24",1
"18/04/23","21:20",0.0,19.7,65.9,1011.4,349.4,1.0,1.7,348.2,0.00,13.2,18.5,"21:14:16",1
"18/04/23","21:30",0.0,19.6,66.3,1011.2,336.5,1.2,1.9,335.7,0.00,13.2,18.5,"21:28:32",1
"18/04/23","21:40",0.0,19.3,68.2,1011.4,330.7,1.3,1.7,338.0,0.00,13.3,18.2,"21:35:12",1
"18/04/23","21:50",0.0,19.2,69.2,1011.4,343.1,1.0,1.9,321.1,0.00,13.5,18.4,"21:40:02",1
"18/04/23","22:00",0.0,19.2,69.6,1011.2,335.9,1.3,2.4,342.7,0.00,13.6,18.3,"21:50:02",1
"18/04/23","22:10",0.0,19.3,69.6,1011.2,334.0,1.5,2.1,341.8,0.00,13.6,18.3,"22:06:16",1
"18/04/23","22:20",0.0,19.5,68.5,1011.4,336.8,1.3,2.2,335.7,0.00,13.6,18.2,"22:14:00",1
"18/04/23","22:30",0.0,19.3,68.8,1011.4,334.0,1.3,2.2,324.6,0.00,13.5,18.1,"22:26:16",1
"18/04/23","22:40",0.0,19.2,69.6,1011.2,309.4,1.0,1.4,333.5,0.00,13.6,18.1,"22:30:24",1
"18/04/23","22:50",0.0,19.1,70.3,1011.4,332.6,1.1,1.8,321.4,0.00,13.6,17.9,"22:42:32",1
"18/04/23","23:00",0.0,19.1,70.1,1010.9,336.2,1.2,1.7,344.9,0.00,13.6,17.9,"22:50:16",1
"18/04/23","23:10",0.0,19.0,70.3,1011.2,308.3,0.8,2.0,337.3,0.00,13.5,18.1,"23:08:32",1
"18/04/23","23:20",0.0,18.7,72.8,1011.4,327.5,1.2,2.1,340.4,0.00,13.8,18.1,"23:10:40",1
"18/04/23","23:30",0.0,18.7,73.5,1011.2,325.6,1.0,1.8,334.2,0.00,13.9,18.0,"23:22:40",1
"18/04/23","23:40",0.0,18.7,72.6,1011.2,322.1,1.0,1.3,333.4,0.00,13.7,17.9,"23:30:02",1
"18/04/23","23:50",0.0,18.5,74.3,1010.9,331.0,1.2,1.4,353.4,0.00,13.9,17.7,"23:41:04",1
"18/04/23","24:00",0.0,18.1,75.0,1011.2,292.0,0.8,1.2,317.5,0.00,13.6,17.8,"23:55:28",1
